Latest Coastal Weather Observations for Nullarbor

IDS60701

Issued at 5:41 pm CDT Saturday 31 January 2015 (issued every 10 minutes, with the page automatically refreshed every 10 minutes)

About coastal observations | Map of coastal stations | Coastal observations for SA | Marine services | Other Formats
Station Details ID: 018106 Name: NULLARBOR Lat: -31.45 Lon: 130.90 Height: 64.0 m
Data from the previous 72 hours. | See also: Recent months at Nullarbor
Date/Time
CDT
Temp

°C
Wind Pressure Rain
since 9am
mm
Weather Cloud Vis
km
Sea
Height
m
Swell
Dir
 
Speed
knots
Gust
knots
hPa Trend Height
m
Period
s
Dir
31/05:30pm 21.9 SSE 23 29 1015.4 - 0.0 - - - - - - -
31/05:00pm 21.6 SSE 23 31 1015.4 - 0.0 - - - - - - -
31/04:30pm 22.5 SSE 21 29 1015.4 - 0.0 - - - - - - -
31/04:00pm 22.5 SSE 23 33 1015.4 - 0.0 - - - - - - -
31/03:55pm 22.0 SSE 23 33 1015.5 - 0.0 - - - - - - -
31/03:30pm 22.4 SSE 23 29 1015.3 - 0.0 - - - - - - -
31/03:00pm 22.8 SSE 23 28 1015.3 - 0.0 - - - - - - -
31/02:30pm 23.6 SSE 21 27 1015.2 - 0.0 - - - - - - -
31/02:00pm 22.9 SE 21 26 1015.4 - 0.0 - - - - - - -
31/01:30pm 22.8 SSE 22 28 1015.6 - 0.0 - - - - - - -
31/01:00pm 22.5 SSE 21 27 1015.8 - 0.0 - - - - - - -
31/12:30pm 22.0 SSE 20 25 1016.0 - 0.0 - - - - - - -
31/12:00pm 21.8 SSE 22 27 1016.0 - 0.0 - - - - - - -
31/11:30am 21.1 SE 20 25 1016.0 - 0.0 - - - - - - -
31/11:00am 21.7 SE 20 26 1016.2 - 0.0 - - - - - - -
31/10:30am 20.9 SE 19 25 1016.2 - 0.0 - - - - - - -
31/10:00am 20.4 SE 21 27 1016.0 - 0.0 - - - - - - -
31/09:30am 20.4 SE 19 26 1015.7 - 0.0 - Partly cloudy - - - - -
31/09:00am 19.3 SE 20 25 1015.5 - 0.0 - Partly cloudy - - - - -
31/08:30am 19.1 SE 17 22 1015.2 - 0.0 - Partly cloudy 10 - - - -
31/08:00am 18.2 SE 16 23 1015.0 - 0.0 - Partly cloudy 10 - - - -
31/07:30am 17.5 SE 14 20 1014.7 - 0.0 - - 10 - - - -
31/07:00am 17.4 SE 14 17 1014.1 - 0.0 - - 10 - - - -
31/06:30am 17.4 SE 12 15 1014.0 - 0.0 - - 10 - - - -
31/06:00am 17.4 SSE 13 16 1013.8 - 0.0 - Mostly cloudy 10 - - - -
31/05:30am 17.4 SSE 12 15 1013.7 - 0.0 - - 10 - - - -
31/05:00am 17.3 SSE 12 15 1013.4 - 0.0 - - 10 - - - -
31/04:30am 17.3 SSE 11 15 1013.2 - 0.0 - - 10 - - - -
31/04:00am 17.4 SSE 12 14 1013.1 - 0.0 - - 10 - - - -
31/03:41am 17.5 SSE 12 14 1013.0 - 0.0 - Partly cloudy 9 - - - -
31/03:30am 17.7 SSE 11 13 1013.1 - 0.0 - Partly cloudy 9 - - - -
31/03:00am 17.7 SSE 10 13 1013.2 - 0.0 - Cloudy 9 - - - -
31/02:55am 17.6 SSE 9 12 1013.3 - 0.0 - Partly cloudy 9 - - - -
31/02:30am 17.1 SSE 8 10 1013.6 - 0.0 - Partly cloudy 8 - - - -
31/02:00am 17.3 SSE 8 10 1013.8 - 0.0 - - 8 - - - -
31/01:30am 17.5 SSE 8 10 1014.0 - 0.0 - - 9 - - - -
31/01:00am 17.8 SSE 10 13 1014.0 - 0.0 - - 10 - - - -
31/12:30am 18.1 SSE 12 15 1014.1 - 0.0 - Partly cloudy 10 - - - -
31/12:00am 18.4 SSE 13 17 1014.3 - 0.0 - Partly cloudy 10 - - - -
 
Date/Time
CDT
Temp

°C
Wind Pressure Rain
since 9am
mm
Weather Cloud Vis
km
Sea
Height
m
Swell
Dir
 
Speed
knots
Gust
knots
hPa Trend Height
m
Period
s
Dir
30/11:54pm 18.4 SSE 13 17 1014.4 - 0.0 - Partly cloudy 10 - - - -
30/11:33pm 18.5 SSE 13 16 1014.4 - 0.0 - Partly cloudy 10 - - - -
30/11:30pm 18.5 SE 13 16 1014.3 - 0.0 - Partly cloudy 10 - - - -
30/11:29pm 18.5 SE 13 16 1014.4 - 0.0 - Partly cloudy 10 - - - -
30/11:00pm 18.6 SSE 13 16 1014.4 - 0.0 - Partly cloudy 10 - - - -
30/10:43pm 18.7 SSE 13 17 1014.4 - 0.0 - Partly cloudy 10 - - - -
30/10:30pm 18.8 SSE 14 18 1014.3 - 0.0 - Partly cloudy 10 - - - -
30/10:00pm 18.9 SSE 13 18 1014.3 - 0.0 - Partly cloudy 10 - - - -
30/09:45pm 19.0 SSE 15 18 1013.9 - 0.0 - Partly cloudy 10 - - - -
30/09:30pm 19.1 SSE 14 18 1013.7 - 0.0 - Partly cloudy 10 - - - -
30/09:24pm 19.1 SSE 15 19 1013.8 - 0.0 - Partly cloudy 10 - - - -
30/09:09pm 19.1 SSE 15 20 1013.6 - 0.0 - Partly cloudy 10 - - - -
30/09:00pm 19.2 SSE 16 21 1013.6 - 0.0 - Partly cloudy 10 - - - -
30/08:30pm 19.5 SSE 18 22 1013.4 - 0.0 - Partly cloudy - - - - -
30/08:00pm 20.0 SSE 17 22 1013.1 - 0.0 - Cloudy - - - - -
30/07:30pm 21.0 SSE 17 21 1013.0 - 0.0 - Partly cloudy - - - - -
30/07:23pm 21.0 SSE 16 21 1012.9 - 0.0 - Partly cloudy - - - - -
30/07:00pm 21.7 SSE 18 23 1012.7 - 0.0 - - - - - - -
30/06:30pm 22.5 SSE 19 23 1012.5 - 0.0 - - - - - - -
30/06:00pm 23.1 SE 18 22 1012.5 - 0.0 - - - - - - -
30/05:30pm 23.1 SSE 19 23 1012.4 - 0.0 - - - - - - -
30/05:00pm 24.1 SSE 18 23 1012.6 - 0.0 - - - - - - -
30/04:30pm 25.6 SSE 16 20 1012.6 - 0.0 - - - - - - -
30/04:00pm 24.9 SSE 16 21 1012.8 - 0.0 - - - - - - -
30/03:30pm 26.4 SSE 16 22 1012.8 - 0.0 - - - - - - -
30/03:00pm 26.0 S 15 21 1013.1 - 0.0 - - - - - - -
30/02:30pm 26.2 S 14 19 1013.4 - 0.0 - - - - - - -
30/02:00pm 25.9 S 12 16 1013.7 - 0.0 - - - - - - -
30/01:30pm 25.7 SSE 11 16 1014.0 - 0.0 - - - - - - -
30/01:00pm 26.4 SSE 11 15 1014.0 - 0.0 - - - - - - -
30/12:30pm 25.2 SE 11 17 1014.3 - 0.0 - - - - - - -
30/12:00pm 25.8 SE 10 13 1014.3 - 0.0 - - - - - - -
30/11:30am 24.6 SE 9 12 1014.5 - 0.0 - - - - - - -
30/11:00am 24.8 SE 9 12 1014.6 - 0.0 - - - - - - -
30/10:30am 23.7 SE 9 12 1014.5 - 0.0 - - - - - - -
30/10:00am 22.4 SE 9 13 1014.7 - 0.0 - - - - - - -
30/09:30am 21.4 SSE 10 12 1014.7 - 0.0 - - - - - - -
30/09:00am 19.6 SSE 9 12 1014.5 - 0.2 - - 10 - - - -
30/08:30am 17.9 SSW 6 7 1014.3 - 0.2 - - 10 - - - -
30/08:00am 15.1 SSW 5 7 1013.8 - 0.2 - - 10 - - - -
30/07:59am 15.1 SSW 6 7 1013.8 - 0.2 - - 10 - - - -
30/07:30am 14.5 S 8 9 1013.5 - 0.2 - - 2 - - - -
30/07:00am 14.5 S 8 9 1013.3 - 0.2 - - 0.5 - - - -
30/06:30am 15.6 S 7 8 1013.3 - 0.2 - - 6 - - - -
30/06:18am 16.1 SSE 6 8 1013.2 - 0.0 - Partly cloudy 7 - - - -
30/06:15am 16.0 SSE 6 7 1013.2 - 0.0 - Partly cloudy 8 - - - -
30/06:00am 16.7 SSE 8 10 1013.1 - 0.0 - Mostly cloudy 9 - - - -
30/05:30am 17.0 SE 8 11 1013.0 - 0.0 - Partly cloudy 10 - - - -
30/05:00am 16.6 SE 8 11 1013.0 - 0.0 - Partly cloudy 9 - - - -
30/04:42am 16.6 SSE 8 10 1013.0 - 0.0 - Partly cloudy 10 - - - -
30/04:30am 15.9 SSE 8 12 1013.1 - 0.0 - Partly cloudy 7 - - - -
30/04:00am 15.2 SSE 7 9 1013.3 - 0.0 - Partly cloudy 7 - - - -
30/03:39am 13.9 SSE 7 8 1013.4 - 0.0 - Partly cloudy 2 - - - -
30/03:37am 13.8 SSE 7 8 1013.4 - 0.0 - Partly cloudy 2 - - - -
30/03:30am 14.1 SSE 7 8 1013.4 - 0.0 - Partly cloudy - - - - -
30/03:00am 14.1 SSE 6 7 1013.5 - 0.0 - Mostly clear 6 - - - -
30/02:41am 14.6 SE 7 8 1013.6 - 0.0 - - 7 - - - -
30/02:30am 15.1 SSE 7 8 1013.7 - 0.0 - - 8 - - - -
30/02:00am 16.3 SE 8 10 1014.0 - 0.0 - Partly cloudy 10 - - - -
30/01:57am 16.4 SE 8 10 1014.0 - 0.0 - Partly cloudy 10 - - - -
30/01:44am 16.7 SE 8 11 1014.3 - 0.0 - Partly cloudy 10 - - - -
30/01:30am 16.9 SE 10 13 1014.1 - 0.0 - Partly cloudy 10 - - - -
30/01:21am 17.0 SE 10 13 1014.3 - 0.0 - Partly cloudy 10 - - - -
30/01:00am 17.2 SE 10 13 1014.3 - 0.0 - Partly cloudy 10 - - - -
30/12:30am 17.4 SE 10 14 1014.3 - 0.0 - Partly cloudy 10 - - - -
30/12:12am 17.4 SE 11 14 1014.4 - 0.0 - Partly cloudy 10 - - - -
30/12:10am 17.4 SE 11 14 1014.4 - 0.0 - Partly cloudy 10 - - - -
30/12:00am 17.3 SE 10 12 1014.4 - 0.0 - Partly cloudy 10 - - - -
 
Date/Time
CDT
Temp

°C
Wind Pressure Rain
since 9am
mm
Weather Cloud Vis
km
Sea
Height
m
Swell
Dir
 
Speed
knots
Gust
knots
hPa Trend Height
m
Period
s
Dir
29/11:53pm 17.4 SE 9 12 1014.4 - 0.0 - Partly cloudy 10 - - - -
29/11:30pm 17.2 SSE 9 11 1014.5 - 0.0 - Partly cloudy 10 - - - -
29/11:00pm 17.4 SE 10 12 1014.5 - 0.0 - - 10 - - - -
29/10:30pm 17.6 SSE 9 11 1014.4 - 0.0 - - 10 - - - -
29/10:00pm 18.0 SSE 10 13 1014.1 - 0.0 - - 10 - - - -
29/09:30pm 18.5 SE 12 15 1014.0 - 0.0 - - 10 - - - -
29/09:00pm 18.9 SE 14 18 1013.6 - 0.0 - - 10 - - - -
29/08:30pm 19.9 SE 14 18 1013.5 - 0.0 - - - - - - -
29/08:00pm 21.0 SE 14 18 1013.3 - 0.0 - - - - - - -
29/07:30pm 22.3 SE 16 20 1013.3 - 0.0 - - - - - - -
29/07:00pm 23.1 SE 17 21 1013.2 - 0.0 - - - - - - -
29/06:30pm 23.9 SE 17 21 1013.2 - 0.0 - - - - - - -
29/06:00pm 24.2 SE 18 23 1013.1 - 0.0 - - - - - - -
29/05:30pm 24.2 SE 18 24 1013.3 - 0.0 - - - - - - -
29/05:00pm 24.7 SE 19 24 1013.4 - 0.0 - - - - - - -
29/04:30pm 25.5 SE 19 24 1013.6 - 0.0 - - - - - - -
29/04:00pm 25.1 SE 18 23 1014.0 - 0.0 - - - - - - -
29/03:30pm 25.2 SE 16 23 1014.4 - 0.0 - - - - - - -
29/03:00pm 25.0 SSE 15 19 1014.7 - 0.0 - - - - - - -
29/02:30pm 25.5 SE 13 17 1015.0 - 0.0 - - - - - - -
29/02:00pm 24.7 SE 13 16 1015.1 - 0.0 - - - - - - -
29/01:30pm 24.9 SSE 13 18 1015.4 - 0.0 - - - - - - -
29/01:00pm 24.5 SE 11 17 1015.6 - 0.0 - - - - - - -
29/12:30pm 25.3 SE 9 16 1015.7 - 0.0 - - - - - - -
29/12:00pm 23.8 ESE 8 15 1015.8 - 0.0 - - - - - - -
29/11:30am 23.4 ESE 10 14 1015.9 - 0.0 - - - - - - -
29/11:00am 22.5 ESE 13 18 1016.1 - 0.0 - - - - - - -
29/10:30am 21.7 ESE 15 19 1016.1 - 0.0 - - - - - - -
29/10:00am 21.3 ESE 16 20 1015.9 - 0.0 - - - - - - -
29/09:30am 19.9 ESE 17 21 1015.9 - 0.0 - - - - - - -
29/09:00am 19.3 ESE 18 23 1015.5 - 0.0 - - - - - - -
29/08:30am 18.5 ESE 15 18 1015.2 - 0.0 - - - - - - -
29/08:00am 16.6 ESE 10 13 1015.0 - 0.0 - - 10 - - - -
29/07:30am 15.2 SE 8 10 1014.9 - 0.0 - - 10 - - - -
29/07:00am 15.1 ESE 9 11 1014.5 - 0.0 - - 10 - - - -
29/06:30am 15.1 SE 9 12 1014.1 - 0.0 - - 10 - - - -
29/06:00am 15.4 SE 9 11 1013.9 - 0.0 - Partly cloudy 10 - - - -
29/05:30am 15.6 SE 9 11 1014.0 - 0.0 - - 10 - - - -
29/05:00am 15.6 SE 9 11 1014.0 - 0.0 - - 10 - - - -
29/04:30am 15.7 SE 9 11 1014.1 - 0.0 - - - - - - -
29/04:00am 15.8 SE 8 10 1014.3 - 0.0 - - 10 - - - -
29/03:30am 16.1 SE 11 13 1014.3 - 0.0 - - - - - - -
29/03:00am 15.9 SE 10 12 1014.5 - 0.0 - - - - - - -
29/02:30am 16.0 SE 10 12 1014.8 - 0.0 - - - - - - -
29/02:00am 16.1 SE 9 11 1015.0 - 0.0 - - 10 - - - -
29/01:30am 16.3 SE 11 12 1015.2 - 0.0 - - 10 - - - -
29/01:00am 16.5 SE 9 12 1015.6 - 0.0 - - 10 - - - -
29/12:30am 16.6 SE 9 11 1015.8 - 0.0 - - 10 - - - -
29/12:00am 16.7 SE 11 14 1015.9 - 0.0 - Partly cloudy 10 - - - -
 
Date/Time
CDT
Temp

°C
Wind Pressure Rain
since 9am
mm
Weather Cloud Vis
km
Sea
Height
m
Swell
Dir
 
Speed
knots
Gust
knots
hPa Trend Height
m
Period
s
Dir
28/11:30pm 17.1 SE 14 17 1015.9 - 0.0 - - - - - - -
28/11:00pm 17.1 SE 14 20 1016.0 - 0.0 - - - - - - -
28/10:30pm 17.3 SE 15 19 1015.9 - 0.0 - - - - - - -
28/10:00pm 17.3 SE 13 17 1015.8 - 0.0 - - - - - - -
28/09:30pm 17.4 SE 14 19 1015.6 - 0.0 - - - - - - -
28/09:00pm 17.8 SE 17 23 1015.5 - 0.0 - - - - - - -
28/08:30pm 18.4 SE 18 24 1015.4 - 0.0 - - - - - - -
28/08:00pm 18.7 SE 20 25 1015.2 - 0.0 - - - - - - -
28/07:30pm 19.3 SE 21 27 1015.1 - 0.0 - - - - - - -
28/07:00pm 20.2 SE 22 27 1015.1 - 0.0 - - - - - - -
28/06:30pm 20.8 SE 23 29 1015.2 - 0.0 - - - - - - -
28/06:00pm 20.9 SE 23 30 1015.2 - 0.0 - - - - - - -

Other Formats:

Comma delimited format used in spreadsheet applications
http://www.bom.gov.au/fwo/IDS60701/IDS60701.94651.axf

JavaScript Object Notation format (JSON) in row-major order
http://www.bom.gov.au/fwo/IDS60701/IDS60701.94651.json